TimeEDT,TemperatureF,Dew PointF,Humidity,Sea Level PressureIn,VisibilityMPH,Wind Direction,Wind SpeedMPH,Gust SpeedMPH,PrecipitationIn,Events,Conditions,WindDirDegrees,DateUTC
12:53 AM,55.0,53.1,93,29.95,6.0,SSW,5.8,-,N/A,,Clear,200,2013-05-11 04:53:00
1:21 AM,55.4,53.6,94,29.94,4.0,SSW,4.6,-,N/A,,Scattered Clouds,200,2013-05-11 05:21:00
1:30 AM,55.4,53.6,94,29.94,4.0,SSW,3.5,-,N/A,,Mostly Cloudy,200,2013-05-11 05:30:00
1:48 AM,57.2,55.4,94,29.93,1.8,SSW,4.6,-,N/A,,Overcast,200,2013-05-11 05:48:00
1:53 AM,57.0,55.9,96,29.93,1.0,SSW,4.6,-,N/A,,Overcast,200,2013-05-11 05:53:00
2:01 AM,57.2,55.4,94,29.92,0.5,SSW,5.8,-,N/A,Fog,Fog,200,2013-05-11 06:01:00
2:05 AM,57.2,57.2,100,29.92,0.2,SSW,5.8,-,N/A,Fog,Fog,200,2013-05-11 06:05:00
2:25 AM,57.2,57.2,100,29.91,0.2,South,8.1,-,N/A,Fog,Fog,190,2013-05-11 06:25:00
2:33 AM,57.2,57.2,100,29.91,0.5,SSW,6.9,-,N/A,Fog,Fog,200,2013-05-11 06:33:00
2:44 AM,57.2,57.2,100,29.91,1.8,South,9.2,-,N/A,,Overcast,190,2013-05-11 06:44:00
2:51 AM,57.2,57.2,100,29.91,2.0,South,8.1,-,N/A,,Overcast,190,2013-05-11 06:51:00
2:53 AM,57.9,57.0,97,29.91,2.0,South,6.9,-,N/A,,Overcast,190,2013-05-11 06:53:00
3:07 AM,57.2,55.4,94,29.90,2.5,South,5.8,-,N/A,,Overcast,180,2013-05-11 07:07:00
3:18 AM,57.2,55.4,94,29.90,3.0,SSE,4.6,-,N/A,,Overcast,160,2013-05-11 07:18:00
3:28 AM,57.2,55.4,94,29.89,2.5,SSE,5.8,-,N/A,,Overcast,160,2013-05-11 07:28:00
3:53 AM,57.0,55.9,96,29.89,2.5,South,5.8,-,N/A,,Overcast,170,2013-05-11 07:53:00
4:00 AM,57.2,55.4,94,29.88,3.0,SSE,8.1,-,N/A,,Overcast,160,2013-05-11 08:00:00
4:20 AM,55.4,55.4,100,29.88,2.0,SSE,5.8,-,N/A,,Overcast,160,2013-05-11 08:20:00
4:35 AM,55.4,53.6,94,29.87,4.0,SSE,5.8,-,N/A,,Overcast,160,2013-05-11 08:35:00
4:53 AM,55.0,54.0,96,29.87,6.0,South,4.6,-,N/A,,Overcast,170,2013-05-11 08:53:00
5:51 AM,57.2,55.4,94,29.88,10.0,SW,9.2,-,N/A,,Overcast,220,2013-05-11 09:51:00
5:53 AM,57.0,55.0,93,29.88,10.0,SW,6.9,16.1,N/A,,Mostly Cloudy,220,2013-05-11 09:53:00
6:05 AM,57.2,55.4,94,29.86,10.0,SSW,4.6,-,N/A,,Mostly Cloudy,200,2013-05-11 10:05:00
6:53 AM,57.9,55.9,93,29.87,9.0,South,4.6,-,0.00,Rain,Light Rain,190,2013-05-11 10:53:00
7:53 AM,57.9,55.9,93,29.86,8.0,SSW,9.2,-,0.01,,Overcast,200,2013-05-11 11:53:00
8:53 AM,62.1,59.0,90,29.85,10.0,SSW,11.5,-,N/A,,Partly Cloudy,210,2013-05-11 12:53:00
9:53 AM,63.0,57.9,84,29.85,10.0,SSW,13.8,21.9,0.00,,Overcast,210,2013-05-11 13:53:00
10:53 AM,63.0,57.0,81,29.86,10.0,SSW,18.4,25.3,0.00,,Overcast,200,2013-05-11 14:53:00
11:53 AM,66.0,59.0,78,29.84,10.0,SW,17.3,34.5,N/A,,Mostly Cloudy,220,2013-05-11 15:53:00
12:53 PM,64.0,57.0,78,29.84,10.0,SW,16.1,24.2,0.00,Rain,Light Rain,230,2013-05-11 16:53:00
1:53 PM,63.0,57.0,81,29.83,10.0,SW,13.8,24.2,0.00,,Overcast,220,2013-05-11 17:53:00
2:53 PM,60.1,57.9,93,29.82,8.0,SSW,15.0,25.3,0.01,Rain,Light Rain,200,2013-05-11 18:53:00
3:53 PM,62.1,59.0,90,29.79,8.0,South,10.4,-,0.01,Rain,Light Rain,190,2013-05-11 19:53:00
4:53 PM,62.1,59.0,90,29.78,10.0,South,12.7,21.9,0.01,,Mostly Cloudy,190,2013-05-11 20:53:00
5:53 PM,62.1,59.0,90,29.78,10.0,South,11.5,20.7,0.00,,Overcast,190,2013-05-11 21:53:00
6:39 PM,60.8,59.0,94,29.79,10.0,SSW,8.1,-,N/A,,Overcast,210,2013-05-11 22:39:00
6:53 PM,61.0,59.0,93,29.79,10.0,SW,6.9,-,0.00,Rain,Light Rain,220,2013-05-11 22:53:00
7:09 PM,60.8,59.0,94,29.79,9.0,South,11.5,18.4,0.00,Rain,Light Rain,190,2013-05-11 23:09:00
7:51 PM,59.0,57.2,94,29.76,1.8,WSW,4.6,-,0.21,Rain,Heavy Rain,240,2013-05-11 23:51:00
7:53 PM,59.0,57.9,96,29.77,2.0,WSW,4.6,-,0.21,Rain,Light Rain,240,2013-05-11 23:53:00
8:53 PM,61.0,59.0,93,29.76,9.0,South,10.4,-,0.57,Rain,Light Rain,190,2013-05-12 00:53:00
9:27 PM,60.8,59.0,94,29.75,8.0,South,8.1,-,0.00,,Overcast,180,2013-05-12 01:27:00
9:38 PM,60.8,60.8,100,29.75,8.0,South,11.5,-,0.00,,Overcast,180,2013-05-12 01:38:00
9:53 PM,60.8,60.8,100,29.75,8.0,SSW,12.7,20.7,N/A,Rain,Light Rain,200,2013-05-12 01:53:00
10:03 PM,60.8,60.8,100,29.75,10.0,SSW,9.2,18.4,0.00,Rain-Thunderstorm,Light Rain,210,2013-05-12 02:03:00
10:24 PM,62.6,60.8,94,29.74,9.0,SSW,11.5,-,0.01,Rain,Light Rain,210,2013-05-12 02:24:00
10:53 PM,62.1,60.1,93,29.73,10.0,SSW,11.5,-,0.05,Rain,Light Rain,200,2013-05-12 02:53:00
11:53 PM,61.0,59.0,93,29.72,10.0,SW,10.4,18.4,0.04,,Overcast,230,2013-05-12 03:53:00